Find OneWeb SL0634

NORAD ID: 56075 Int'l Des: 2023-043 Owner: ONEWEBN Country: UK Constellation: oneweb operational
LEOCIRCULARPOLARONEWEB_TYPE

实时位置

正在加载3D地球...

关于 OneWeb SL0634

正在加载描述...

即将过境

Passes for default location (London). Set your location on the main map for personalized predictions.

高度历史

Loading altitude history...

两行轨道根数

1 56075U 23043AF 26126.92582913 .00000107 00000-0 25058-3 0 9992
2 56075 87.8969 267.4553 0001626 108.9558 251.1749 13.15549285150979
Epoch: May 6, 2026 • Age: 19 hours

当前状态

高度 1209.2 km
速度 7.25 km/s
星下点 52.38°N, 37.78°W
发射日期 Mar 26, 2023
运行时间 3.1 years
类型 internet

技术详情

分类 Payload
质量 148.00 kg
干质量 140.00 kg
总质量 148.00 kg
长度 1.30 m
直径 1.00 m
跨度 5.00 m
形状 Trapezoid+2 pan
制造商 ONEWUS
平台类型 ARROW
阶段状态 In Orbit
所有者/国家 ONEWEBN/UK

Most Searched